| time (UTC) | temp F | wind direction | speed knots | gust knots | rain 1hr in | rain 24hr in | rain mn in | humidity % | barometer mb |
| 20260504214957 | 75 | 242 | 3.5 | 6.1 | 0.00 | 0.00 | 0.00 | 52 | 1010.5 |
| 20260504214914 | 0 | 0.0 | 0.0 | 0.00 | 0.00 | 0.00 | |||
| 20260504214457 | 75 | 218 | 3.5 | 7.0 | 0.00 | 0.00 | 0.00 | 52 | 1010.5 |
| 20260504213958 | 75 | 168 | 2.6 | 3.5 | 0.00 | 0.00 | 0.00 | 53 | 1010.5 |
| 20260504213458 | 74 | 209 | 2.6 | 5.2 | 0.00 | 0.00 | 0.00 | 53 | 1010.5 |
| 20260504213413 | 0 | 0.0 | 0.0 | 0.00 | 0.00 | 0.00 | |||
| 20260504213004 | 75 | 262 | 3.5 | 5.2 | 0.00 | 0.00 | 0.00 | 52 | 1010.6 |
| 20260504212909 | 0 | 0.0 | 0.0 | 0.00 | 0.00 | 0.00 | |||
| 20260504212457 | 75 | 220 | 2.6 | 3.5 | 0.00 | 0.00 | 0.00 | 53 | 1010.6 |
| 20260504212408 | 0 | 0.0 | 0.0 | 0.00 | 0.00 | 0.00 | |||
| 20260504211957 | 75 | 264 | 3.5 | 5.2 | 0.00 | 0.00 | 0.00 | 53 | 1010.6 |
| 20260504211457 | 75 | 234 | 3.5 | 5.2 | 0.00 | 0.00 | 0.00 | 52 | 1010.6 |
| 20260504211406 | 0 | 0.0 | 0.0 | 0.00 | 0.00 | 0.00 | |||
| 20260504210957 | 74 | 213 | 3.5 | 7.0 | 0.00 | 0.00 | 0.00 | 53 | 1010.7 |
| 20260504210907 | 0 | 0.0 | 0.0 | 0.00 | 0.00 | 0.00 | |||
| 20260504210458 | 74 | 256 | 2.6 | 6.1 | 0.00 | 0.00 | 0.00 | 52 | 1010.7 |
| 20260504210404 | 0 | 0.0 | 0.0 | 0.00 | 0.00 | 0.00 | |||
| 20260504210000 | 74 | 247 | 3.5 | 5.2 | 0.00 | 0.00 | 0.00 | 53 | 1010.7 |
| 20260504205903 | 0 | 0.0 | 0.0 | 0.00 | 0.00 | 0.00 | |||
| 20260504205457 | 73 | 213 | 2.6 | 5.2 | 0.00 | 0.00 | 0.00 | 54 | 1010.6 |
| 20260504205404 | 0 | 0.0 | 0.0 | 0.00 | 0.00 | 0.00 | |||
| 20260504204958 | 74 | 244 | 1.7 | 6.1 | 0.00 | 0.00 | 0.00 | 53 | 1010.6 |
| 20260504204903 | 0 | 0.0 | 0.0 | 0.00 | 0.00 | 0.00 | |||
| 20260504204458 | 74 | 225 | 4.3 | 6.1 | 0.00 | 0.00 | 0.00 | 53 | 1010.7 |
| 20260504204401 | 0 | 0.0 | 0.0 | 0.00 | 0.00 | 0.00 | |||
| 20260504203957 | 74 | 248 | 2.6 | 5.2 | 0.00 | 0.00 | 0.00 | 53 | 1010.8 |
| 20260504203901 | 0 | 0.0 | 0.0 | 0.00 | 0.00 | 0.00 | |||
| 20260504203459 | 74 | 236 | 3.5 | 5.2 | 0.00 | 0.00 | 0.00 | 53 | 1010.9 |
| 20260504203401 | 0 | 0.0 | 0.0 | 0.00 | 0.00 | 0.00 | |||
| 20260504202957 | 73 | 220 | 3.5 | 5.2 | 0.00 | 0.00 | 0.00 | 54 | 1010.8 |
| 20260504202901 | 0 | 0.0 | 0.0 | 0.00 | 0.00 | 0.00 | |||
| 20260504202401 | 0 | 0.0 | 0.0 | 0.00 | 0.00 | 0.00 | |||
| 20260504202008 | 74 | 254 | 3.5 | 6.1 | 0.00 | 0.00 | 0.00 | 50 | 1010.8 |
| 20260504201901 | 0 | 0.0 | 0.0 | 0.00 | 0.00 | 0.00 | |||
| 20260504201458 | 74 | 231 | 1.7 | 2.6 | 0.00 | 0.00 | 0.00 | 50 | 1010.9 |
| 20260504201359 | 0 | 0.0 | 0.0 | 0.00 | 0.00 | 0.00 | |||
| 20260504201000 | 74 | 276 | 3.5 | 5.2 | 0.00 | 0.00 | 0.00 | 50 | 1010.9 |
| 20260504200858 | 0 | 0.0 | 0.0 | 0.00 | 0.00 | 0.00 | |||
| 20260504200459 | 73 | 256 | 1.7 | 2.6 | 0.00 | 0.00 | 0.00 | 52 | 1011.0 |
| 20260504200358 | 0 | 0.0 | 0.0 | 0.00 | 0.00 | 0.00 | |||
| 20260504195957 | 73 | 292 | 3.5 | 5.2 | 0.00 | 0.00 | 0.00 | 53 | 1011.0 |
| 20260504195855 | 0 | 0.0 | 0.0 | 0.00 | 0.00 | 0.00 | |||
| 20260504195458 | 73 | 257 | 4.3 | 6.1 | 0.00 | 0.00 | 0.00 | 54 | 1010.9 |
| 20260504195356 | 0 | 0.0 | 0.0 | 0.00 | 0.00 | 0.00 | |||
| 20260504194957 | 72 | 264 | 3.5 | 6.1 | 0.00 | 0.00 | 0.00 | 55 | 1010.9 |
| 20260504194855 | 0 | 0.0 | 0.0 | 0.00 | 0.00 | 0.00 | |||
| 20260504194457 | 72 | 225 | 5.2 | 7.0 | 0.00 | 0.00 | 0.00 | 54 | 1010.9 |
| 20260504194356 | 0 | 0.0 | 0.0 | 0.00 | 0.00 | 0.00 | |||
| 20260504193957 | 71 | 250 | 2.6 | 4.3 | 0.00 | 0.00 | 0.00 | 55 | 1010.9 |
| 20260504193855 | 0 | 0.0 | 0.0 | 0.00 | 0.00 | 0.00 | |||
| 20260504193457 | 71 | 265 | 2.6 | 4.3 | 0.00 | 0.00 | 0.00 | 54 | 1010.8 |
| 20260504193356 | 0 | 0.0 | 0.0 | 0.00 | 0.00 | 0.00 | |||
| 20260504192957 | 71 | 201 | 2.6 | 4.3 | 0.00 | 0.00 | 0.00 | 56 | 1010.8 |
| 20260504192855 | 0 | 0.0 | 0.0 | 0.00 | 0.00 | 0.00 | |||
| 20260504192458 | 71 | 212 | 2.6 | 6.1 | 0.00 | 0.00 | 0.00 | 55 | 1010.8 |
| 20260504192356 | 0 | 0.0 | 0.0 | 0.00 | 0.00 | 0.00 | |||
| 20260504191957 | 71 | 273 | 3.5 | 4.3 | 0.00 | 0.00 | 0.00 | 55 | 1010.9 |
| 20260504191457 | 71 | 199 | 2.6 | 5.2 | 0.00 | 0.00 | 0.00 | 55 | 1010.8 |
| 20260504191354 | 0 | 0.0 | 0.0 | 0.00 | 0.00 | 0.00 | |||
| 20260504190957 | 71 | 221 | 3.5 | 4.3 | 0.00 | 0.00 | 0.00 | 55 | 1010.9 |
| 20260504190854 | 0 | 0.0 | 0.0 | 0.00 | 0.00 | 0.00 | |||
| 20260504190458 | 72 | 247 | 3.5 | 7.0 | 0.00 | 0.00 | 0.00 | 54 | 1010.9 |
| 20260504190351 | 0 | 0.0 | 0.0 | 0.00 | 0.00 | 0.00 | |||
| 20260504185958 | 71 | 236 | 1.7 | 4.3 | 0.00 | 0.00 | 0.00 | 54 | 1010.9 |
| 20260504185850 | 0 | 0.0 | 0.0 | 0.00 | 0.00 | 0.00 | |||
| 20260504185457 | 71 | 266 | 2.6 | 5.2 | 0.00 | 0.00 | 0.00 | 52 | 1010.9 |
| 20260504185351 | 0 | 0.0 | 0.0 | 0.00 | 0.00 | 0.00 | |||
| 20260504184957 | 71 | 235 | 3.5 | 5.2 | 0.00 | 0.00 | 0.00 | 53 | 1011.0 |
| 20260504184457 | 71 | 215 | 1.7 | 3.5 | 0.00 | 0.00 | 0.00 | 54 | 1011.0 |
| 20260504184350 | 0 | 0.0 | 0.0 | 0.00 | 0.00 | 0.00 | |||
| 20260504184000 | 71 | 241 | 2.6 | 5.2 | 0.00 | 0.00 | 0.00 | 53 | 1011.0 |
| 20260504183851 | 0 | 0.0 | 0.0 | 0.00 | 0.00 | 0.00 | |||
| 20260504183459 | 71 | 206 | 2.6 | 3.5 | 0.00 | 0.00 | 0.00 | 53 | 1010.9 |
| 20260504183351 | 0 | 0.0 | 0.0 | 0.00 | 0.00 | 0.00 | |||
| 20260504182957 | 71 | 258 | 2.6 | 5.2 | 0.00 | 0.00 | 0.00 | 53 | 1010.9 |
| 20260504182851 | 0 | 0.0 | 0.0 | 0.00 | 0.00 | 0.00 | |||
| 20260504182457 | 71 | 268 | 1.7 | 3.5 | 0.00 | 0.00 | 0.00 | 54 | 1011.0 |
| 20260504181957 | 71 | 243 | 2.6 | 4.3 | 0.00 | 0.00 | 0.00 | 54 | 1010.9 |
| 20260504181851 | 0 | 0.0 | 0.0 | 0.00 | 0.00 | 0.00 | |||
| 20260504181458 | 71 | 216 | 3.5 | 5.2 | 0.00 | 0.00 | 0.00 | 55 | 1010.9 |
| 20260504181351 | 0 | 0.0 | 0.0 | 0.00 | 0.00 | 0.00 | |||
| 20260504180957 | 71 | 175 | 2.6 | 4.3 | 0.00 | 0.00 | 0.00 | 55 | 1010.9 |
| 20260504180848 | 0 | 0.0 | 0.0 | 0.00 | 0.00 | 0.00 | |||
| 20260504180458 | 70 | 221 | 1.7 | 3.5 | 0.00 | 0.00 | 0.00 | 54 | 1010.9 |
| 20260504180349 | 0 | 0.0 | 0.0 | 0.00 | 0.00 | 0.00 | |||
| 20260504175958 | 70 | 170 | 1.7 | 2.6 | 0.00 | 0.00 | 0.00 | 54 | 1011.0 |
| 20260504175848 | 0 | 0.0 | 0.0 | 0.00 | 0.00 | 0.00 | |||
| 20260504175459 | 70 | 262 | 2.6 | 3.5 | 0.00 | 0.00 | 0.00 | 55 | 1010.9 |
| 20260504175349 | 0 | 0.0 | 0.0 | 0.00 | 0.00 | 0.00 | |||
| 20260504175005 | 70 | 195 | 0.9 | 2.6 | 0.00 | 0.00 | 0.00 | 58 | 1011.0 |
| 20260504174848 | 0 | 0.0 | 0.0 | 0.00 | 0.00 | 0.00 | |||
| 20260504174457 | 69 | 206 | 1.7 | 2.6 | 0.00 | 0.00 | 0.00 | 60 | 1010.9 |
| 20260504174349 | 0 | 0.0 | 0.0 | 0.00 | 0.00 | 0.00 | |||
| 20260504173957 | 69 | 194 | 1.7 | 3.5 | 0.00 | 0.00 | 0.00 | 59 | 1011.0 |
| 20260504173849 | 0 | 0.0 | 0.0 | 0.00 | 0.00 | 0.00 | |||
| 20260504173457 | 69 | 187 | 1.7 | 2.6 | 0.00 | 0.00 | 0.00 | 59 | 1010.9 |
| 20260504173348 | 0 | 0.0 | 0.0 | 0.00 | 0.00 | 0.00 | |||
| 20260504172957 | 69 | 284 | 0.9 | 1.7 | 0.00 | 0.00 | 0.00 | 57 | 1011.0 |
| 20260504172457 | 69 | 234 | 2.6 | 3.5 | 0.00 | 0.00 | 0.00 | 57 | 1011.0 |
| 20260504171957 | 68 | 238 | 1.7 | 1.7 | 0.00 | 0.00 | 0.00 | 58 | 1010.9 |
| 20260504171849 | 0 | 0.0 | 0.0 | 0.00 | 0.00 | 0.00 | |||
| 20260504171458 | 68 | 199 | 1.7 | 3.5 | 0.00 | 0.00 | 0.00 | 60 | 1011.0 |
| 20260504171349 | 0 | 0.0 | 0.0 | 0.00 | 0.00 | 0.00 | |||
| 20260504170957 | 68 | 251 | 1.7 | 4.3 | 0.00 | 0.00 | 0.00 | 61 | 1010.9 |
| 20260504170850 | 0 | 0.0 | 0.0 | 0.00 | 0.00 | 0.00 | |||
| 20260504170457 | 69 | 162 | 1.7 | 2.6 | 0.00 | 0.00 | 0.00 | 57 | 1010.9 |
| 20260504160341 | 0 | 0.0 | 0.0 | 0.00 | 0.00 | 0.00 | |||
| 20260504151009 | 65 | 18 | 0.9 | 1.7 | 0.00 | 0.00 | 0.00 | 56 | 1010.8 |
| 20260504150457 | 65 | 359 | 0.9 | 1.7 | 0.00 | 0.00 | 0.00 | 56 | 1010.8 |
| 20260504150341 | 0 | 0.0 | 0.0 | 0.00 | 0.00 | 0.00 | |||
| 20260504141310 | 0 | 0.0 | 0.0 | 0.00 | 0.00 | 0.00 | |||
| 20260504140958 | 61 | 31 | 1.7 | 2.6 | 0.00 | 0.00 | 0.00 | 60 | 1010.2 |
| 20260504140810 | 0 | 0.0 | 0.0 | 0.00 | 0.00 | 0.00 | |||
| 20260504140458 | 61 | 33 | 1.7 | 1.7 | 0.00 | 0.00 | 0.00 | 60 | 1010.2 |
| 20260504140310 | 0 | 0.0 | 0.0 | 0.00 | 0.00 | 0.00 | |||
| 20260504130803 | 0 | 0.0 | 0.0 | 0.00 | 0.00 | 0.00 | |||
| 20260504130457 | 61 | 9 | 0.9 | 1.7 | 0.00 | 0.00 | 0.00 | 58 | 1009.7 |
| 20260504130303 | 0 | 0.0 | 0.0 | 0.00 | 0.00 | 0.00 | |||
| 20260504110457 | 62 | 0 | 1.7 | 2.6 | 0.00 | 0.00 | 0.00 | 61 | 1009.9 |
| 20260504100457 | 64 | 315 | 1.7 | 3.5 | 0.00 | 0.00 | 0.00 | 53 | 1009.8 |
| 20260504100246 | 0 | 0.0 | 0.0 | 0.00 | 0.00 | 0.00 | |||
| 20260504081957 | 70 | 309 | 4.3 | 6.1 | 0.00 | 0.00 | 0.00 | 44 | 1009.9 |
| 20260504081744 | 0 | 0.0 | 0.0 | 0.00 | 0.00 | 0.00 | |||
| 20260504081458 | 70 | 323 | 2.6 | 5.2 | 0.00 | 0.00 | 0.00 | 44 | 1009.8 |
| 20260504081244 | 0 | 0.0 | 0.0 | 0.00 | 0.00 | 0.00 | |||
| 20260504080958 | 70 | 324 | 3.5 | 6.1 | 0.00 | 0.00 | 0.00 | 44 | 1009.9 |
| 20260504080744 | 0 | 0.0 | 0.0 | 0.00 | 0.00 | 0.00 | |||
| 20260504080457 | 70 | 312 | 3.5 | 7.0 | 0.00 | 0.00 | 0.00 | 43 | 1009.9 |
| 20260504080244 | 0 | 0.0 | 0.0 | 0.00 | 0.00 | 0.00 | |||
| 20260504070242 | 0 | 0.0 | 0.0 | 0.00 | 0.00 | 0.00 | |||
| 20260504060237 | 0 | 0.0 | 0.0 | 0.00 | 0.00 | 0.00 | |||
| 20260504050732 | 0 | 0.0 | 0.0 | 0.00 | 0.00 | 0.00 | |||
| 20260504050457 | 71 | 319 | 2.6 | 3.5 | 0.00 | 0.00 | 0.00 | 40 | 1010.2 |
| 20260504050232 | 0 | 0.0 | 0.0 | 0.00 | 0.00 | 0.00 | |||
| 20260504045732 | 0 | 0.0 | 0.0 | 0.00 | 0.00 | 0.00 | |||
| 20260504045507 | 71 | 352 | 3.5 | 6.1 | 0.00 | 0.00 | 0.00 | 40 | 1010.3 |
| 20260504044957 | 71 | 356 | 1.7 | 4.3 | 0.00 | 0.00 | 0.00 | 41 | 1010.3 |
| 20260504044729 | 0 | 0.0 | 0.0 | 0.00 | 0.00 | 0.00 | |||
| 20260504044457 | 71 | 333 | 3.5 | 5.2 | 0.00 | 0.00 | 0.00 | 40 | 1010.3 |
| 20260504043957 | 71 | 319 | 2.6 | 6.1 | 0.00 | 0.00 | 0.00 | 40 | 1010.2 |
| 20260504043729 | 0 | 0.0 | 0.0 | 0.00 | 0.00 | 0.00 | |||
| 20260504043457 | 71 | 332 | 3.5 | 4.3 | 0.00 | 0.00 | 0.00 | 40 | 1010.2 |
| 20260504043229 | 0 | 0.0 | 0.0 | 0.00 | 0.00 | 0.00 | |||
| 20260504042957 | 71 | 348 | 4.3 | 7.0 | 0.00 | 0.00 | 0.00 | 40 | 1010.2 |
| 20260504042730 | 0 | 0.0 | 0.0 | 0.00 | 0.00 | 0.00 | |||
| 20260504042457 | 71 | 338 | 4.3 | 8.7 | 0.00 | 0.00 | 0.00 | 40 | 1010.2 |
| 20260504041957 | 71 | 326 | 3.5 | 6.1 | 0.00 | 0.00 | 0.00 | 40 | 1010.2 |
| 20260504041729 | 0 | 0.0 | 0.0 | 0.00 | 0.00 | 0.00 | |||
| 20260504041457 | 71 | 349 | 4.3 | 9.6 | 0.00 | 0.00 | 0.00 | 40 | 1010.2 |
| 20260504041230 | 0 | 0.0 | 0.0 | 0.00 | 0.00 | 0.00 | |||
| 20260504040957 | 71 | 336 | 4.3 | 7.0 | 0.00 | 0.00 | 0.00 | 40 | 1010.2 |
| 20260504040730 | 0 | 0.0 | 0.0 | 0.00 | 0.00 | 0.00 | |||
| 20260504040457 | 71 | 336 | 2.6 | 5.2 | 0.00 | 0.00 | 0.00 | 40 | 1010.2 |
| 20260504040231 | 0 | 0.0 | 0.0 | 0.00 | 0.00 | 0.00 | |||
| 20260504035957 | 71 | 338 | 3.5 | 6.1 | 0.00 | 0.00 | 0.00 | 40 | 1010.2 |
| 20260504035727 | 0 | 0.0 | 0.0 | 0.00 | 0.00 | 0.00 | |||
| 20260504035457 | 71 | 348 | 4.3 | 7.0 | 0.00 | 0.00 | 0.00 | 41 | 1010.2 |
| 20260504035227 | 0 | 0.0 | 0.0 | 0.00 | 0.00 | 0.00 | |||
| 20260504034957 | 71 | 327 | 3.5 | 7.0 | 0.00 | 0.00 | 0.00 | 41 | 1010.3 |
| 20260504034728 | 0 | 0.0 | 0.0 | 0.00 | 0.00 | 0.00 | |||
| 20260504034458 | 71 | 336 | 5.2 | 7.8 | 0.00 | 0.00 | 0.00 | 40 | 1010.3 |
| 20260504034227 | 0 | 0.0 | 0.0 | 0.00 | 0.00 | 0.00 | |||
| 20260504033957 | 71 | 351 | 3.5 | 6.1 | 0.00 | 0.00 | 0.00 | 40 | 1010.2 |
| 20260504033728 | 0 | 0.0 | 0.0 | 0.00 | 0.00 | 0.00 | |||
| 20260504033457 | 71 | 330 | 3.5 | 6.1 | 0.00 | 0.00 | 0.00 | 40 | 1010.3 |
| 20260504033227 | 0 | 0.0 | 0.0 | 0.00 | 0.00 | 0.00 | |||
| 20260504032957 | 72 | 1 | 4.3 | 7.0 | 0.00 | 0.00 | 0.00 | 40 | 1010.2 |
| 20260504032727 | 0 | 0.0 | 0.0 | 0.00 | 0.00 | 0.00 | |||
| 20260504032457 | 72 | 0 | 3.5 | 7.8 | 0.00 | 0.00 | 0.00 | 40 | 1010.1 |
| 20260504031958 | 72 | 341 | 3.5 | 7.0 | 0.00 | 0.00 | 0.00 | 40 | 1010.2 |
| 20260504031457 | 73 | 338 | 3.5 | 6.1 | 0.00 | 0.00 | 0.00 | 39 | 1010.2 |
| 20260504031228 | 0 | 0.0 | 0.0 | 0.00 | 0.00 | 0.00 | |||
| 20260504031000 | 73 | 334 | 3.5 | 6.1 | 0.00 | 0.00 | 0.00 | 39 | 1010.3 |
| 20260504030728 | 0 | 0.0 | 0.0 | 0.00 | 0.00 | 0.00 | |||
| 20260504030457 | 73 | 356 | 3.5 | 7.0 | 0.00 | 0.00 | 0.00 | 39 | 1010.3 |
| 20260504030228 | 0 | 0.0 | 0.0 | 0.00 | 0.00 | 0.00 | |||
| 20260504025958 | 74 | 329 | 2.6 | 5.2 | 0.00 | 0.00 | 0.00 | 39 | 1010.2 |
| 20260504025728 | 0 | 0.0 | 0.0 | 0.00 | 0.00 | 0.00 | |||
| 20260504025457 | 74 | 330 | 5.2 | 7.8 | 0.00 | 0.00 | 0.00 | 39 | 1010.3 |
| 20260504025227 | 0 | 0.0 | 0.0 | 0.00 | 0.00 | 0.00 | |||
| 20260504025007 | 74 | 337 | 4.3 | 7.0 | 0.00 | 0.00 | 0.00 | 39 | 1010.3 |
| 20260504024725 | 0 | 0.0 | 0.0 | 0.00 | 0.00 | 0.00 | |||
| 20260504024457 | 75 | 347 | 4.3 | 7.8 | 0.00 | 0.00 | 0.00 | 38 | 1010.3 |
| 20260504024226 | 0 | 0.0 | 0.0 | 0.00 | 0.00 | 0.00 | |||
| 20260504023957 | 75 | 311 | 1.7 | 3.5 | 0.00 | 0.00 | 0.00 | 40 | 1010.3 |
| 20260504023726 | 0 | 0.0 | 0.0 | 0.00 | 0.00 | 0.00 | |||
| 20260504023457 | 75 | 317 | 2.6 | 5.2 | 0.00 | 0.00 | 0.00 | 39 | 1010.3 |
| 20260504023226 | 0 | 0.0 | 0.0 | 0.00 | 0.00 | 0.00 | |||
| 20260504022957 | 75 | 325 | 3.5 | 5.2 | 0.00 | 0.00 | 0.00 | 39 | 1010.4 |
| 20260504022457 | 75 | 312 | 3.5 | 7.0 | 0.00 | 0.00 | 0.00 | 39 | 1010.4 |
| 20260504022226 | 0 | 0.0 | 0.0 | 0.00 | 0.00 | 0.00 | |||
| 20260504021958 | 75 | 314 | 2.6 | 5.2 | 0.00 | 0.00 | 0.00 | 39 | 1010.5 |
| 20260504021726 | 0 | 0.0 | 0.0 | 0.00 | 0.00 | 0.00 | |||
| 20260504021457 | 75 | 326 | 3.5 | 7.0 | 0.00 | 0.00 | 0.00 | 39 | 1010.6 |
| 20260504021226 | 0 | 0.0 | 0.0 | 0.00 | 0.00 | 0.00 | |||
| 20260504020957 | 75 | 320 | 3.5 | 6.1 | 0.00 | 0.00 | 0.00 | 40 | 1010.6 |
| 20260504020727 | 0 | 0.0 | 0.0 | 0.00 | 0.00 | 0.00 | |||
| 20260504020457 | 74 | 337 | 5.2 | 8.7 | 0.00 | 0.00 | 0.00 | 39 | 1010.6 |
| 20260504020226 | 0 | 0.0 | 0.0 | 0.00 | 0.00 | 0.00 | |||
| 20260504020002 | 74 | 313 | 5.2 | 7.0 | 0.00 | 0.00 | 0.00 | 41 | 1010.7 |
| 20260504015727 | 0 | 0.0 | 0.0 | 0.00 | 0.00 | 0.00 | |||
| 20260504015458 | 74 | 320 | 5.2 | 6.1 | 0.00 | 0.00 | 0.00 | 41 | 1010.7 |
| 20260504015224 | 0 | 0.0 | 0.0 | 0.00 | 0.00 | 0.00 | |||
| 20260504014957 | 74 | 300 | 5.2 | 7.8 | 0.00 | 0.00 | 0.00 | 43 | 1010.7 |
| 20260504014724 | 0 | 0.0 | 0.0 | 0.00 | 0.00 | 0.00 | |||
| 20260504014457 | 74 | 311 | 5.2 | 7.8 | 0.00 | 0.00 | 0.00 | 42 | 1010.7 |
| 20260504014223 | 0 | 0.0 | 0.0 | 0.00 | 0.00 | 0.00 | |||
| 20260504013958 | 74 | 309 | 6.1 | 9.6 | 0.00 | 0.00 | 0.00 | 43 | 1010.7 |
| 20260504013724 | 0 | 0.0 | 0.0 | 0.00 | 0.00 | 0.00 | |||
| 20260504013458 | 74 | 306 | 3.5 | 7.0 | 0.00 | 0.00 | 0.00 | 43 | 1010.7 |
| 20260504013224 | 0 | 0.0 | 0.0 | 0.00 | 0.00 | 0.00 | |||
| 20260504012957 | 73 | 308 | 5.2 | 7.0 | 0.00 | 0.00 | 0.00 | 44 | 1010.7 |
| 20260504012724 | 0 | 0.0 | 0.0 | 0.00 | 0.00 | 0.00 | |||
| 20260504012457 | 73 | 301 | 6.1 | 9.6 | 0.00 | 0.00 | 0.00 | 46 | 1010.8 |
| 20260504012224 | 0 | 0.0 | 0.0 | 0.00 | 0.00 | 0.00 | |||
| 20260504011957 | 74 | 308 | 5.2 | 7.8 | 0.00 | 0.00 | 0.00 | 45 | 1010.9 |
| 20260504011457 | 74 | 305 | 4.3 | 7.8 | 0.00 | 0.00 | 0.00 | 45 | 1010.9 |
| 20260504010958 | 74 | 318 | 6.1 | 7.8 | 0.00 | 0.00 | 0.00 | 43 | 1011.0 |
| 20260504010724 | 0 | 0.0 | 0.0 | 0.00 | 0.00 | 0.00 | |||
| 20260504010457 | 73 | 310 | 5.2 | 7.8 | 0.00 | 0.00 | 0.00 | 43 | 1011.0 |
| 20260504010221 | 0 | 0.0 | 0.0 | 0.00 | 0.00 | 0.00 | |||
| 20260504005957 | 73 | 320 | 5.2 | 7.0 | 0.00 | 0.00 | 0.00 | 45 | 1011.0 |
| 20260504005722 | 0 | 0.0 | 0.0 | 0.00 | 0.00 | 0.00 | |||
| 20260504005457 | 73 | 321 | 4.3 | 7.0 | 0.00 | 0.00 | 0.00 | 46 | 1011.1 |
| 20260504005222 | 0 | 0.0 | 0.0 | 0.00 | 0.00 | 0.00 | |||
| 20260504004957 | 73 | 312 | 5.2 | 8.7 | 0.00 | 0.00 | 0.00 | 45 | 1011.1 |
| 20260504004722 | 0 | 0.0 | 0.0 | 0.00 | 0.00 | 0.00 | |||
| 20260504004457 | 74 | 307 | 4.3 | 7.0 | 0.00 | 0.00 | 0.00 | 44 | 1011.1 |
| 20260504004222 | 0 | 0.0 | 0.0 | 0.00 | 0.00 | 0.00 | |||
| 20260504003958 | 73 | 315 | 3.5 | 7.0 | 0.00 | 0.00 | 0.00 | 44 | 1011.2 |
| 20260504003721 | 0 | 0.0 | 0.0 | 0.00 | 0.00 | 0.00 | |||
| 20260504003458 | 74 | 314 | 5.2 | 7.8 | 0.00 | 0.00 | 0.00 | 45 | 1011.2 |
| 20260504003222 | 0 | 0.0 | 0.0 | 0.00 | 0.00 | 0.00 | |||
| 20260504002957 | 73 | 313 | 4.3 | 6.1 | 0.00 | 0.00 | 0.00 | 46 | 1011.3 |
| 20260504002721 | 0 | 0.0 | 0.0 | 0.00 | 0.00 | 0.00 | |||
| 20260504002457 | 74 | 311 | 4.3 | 7.0 | 0.00 | 0.00 | 0.00 | 44 | 1011.2 |
| 20260504002222 | 0 | 0.0 | 0.0 | 0.00 | 0.00 | 0.00 | |||
| 20260504001957 | 74 | 298 | 3.5 | 7.8 | 0.00 | 0.00 | 0.00 | 44 | 1011.3 |
| 20260504001722 | 0 | 0.0 | 0.0 | 0.00 | 0.00 | 0.00 | |||
| 20260504001457 | 73 | 315 | 4.3 | 8.7 | 0.00 | 0.00 | 0.00 | 45 | 1011.4 |
| 20260504001221 | 0 | 0.0 | 0.0 | 0.00 | 0.00 | 0.00 | |||
| 20260504000957 | 73 | 315 | 3.5 | 7.0 | 0.00 | 0.00 | 0.00 | 45 | 1011.4 |
| 20260504000722 | 0 | 0.0 | 0.0 | 0.00 | 0.00 | 0.00 | |||
| 20260504000457 | 73 | 309 | 4.3 | 7.0 | 0.00 | 0.00 | 0.00 | 48 | 1011.5 |
| 20260504000223 | 0 | 0.0 | 0.0 | 0.00 | 0.00 | 0.00 | |||
| 20260503235957 | 73 | 309 | 3.5 | 5.2 | 0.00 | 0.00 | 0.00 | 47 | 1011.5 |
| 20260503235457 | 73 | 309 | 5.2 | 7.0 | 0.00 | 0.00 | 0.00 | 50 | 1011.6 |
| 20260503235220 | 0 | 0.0 | 0.0 | 0.00 | 0.00 | 0.00 | |||
| 20260503234957 | 75 | 316 | 5.2 | 7.0 | 0.00 | 0.00 | 0.00 | 46 | 1011.6 |
| 20260503234720 | 0 | 0.0 | 0.0 | 0.00 | 0.00 | 0.00 | |||
| 20260503234457 | 76 | 303 | 5.2 | 7.8 | 0.00 | 0.00 | 0.00 | 42 | 1011.6 |
| 20260503234219 | 0 | 0.0 | 0.0 | 0.00 | 0.00 | 0.00 | |||
| 20260503233957 | 76 | 306 | 4.3 | 7.8 | 0.00 | 0.00 | 0.00 | 42 | 1011.6 |
| 20260503233721 | 0 | 0.0 | 0.0 | 0.00 | 0.00 | 0.00 | |||
| 20260503233457 | 76 | 309 | 3.5 | 5.2 | 0.00 | 0.00 | 0.00 | 41 | 1011.7 |
| 20260503233217 | 0 | 0.0 | 0.0 | 0.00 | 0.00 | 0.00 | |||
| 20260503232958 | 75 | 310 | 2.6 | 5.2 | 0.00 | 0.00 | 0.00 | 42 | 1011.7 |
| 20260503232717 | 0 | 0.0 | 0.0 | 0.00 | 0.00 | 0.00 | |||
| 20260503232457 | 74 | 311 | 4.3 | 7.8 | 0.00 | 0.00 | 0.00 | 43 | 1011.8 |
| 20260503232219 | 0 | 0.0 | 0.0 | 0.00 | 0.00 | 0.00 | |||
| 20260503231958 | 73 | 307 | 2.6 | 4.3 | 0.00 | 0.00 | 0.00 | 44 | 1011.9 |
| 20260503231717 | 0 | 0.0 | 0.0 | 0.00 | 0.00 | 0.00 | |||
| 20260503231457 | 73 | 303 | 3.5 | 7.8 | 0.00 | 0.00 | 0.00 | 45 | 1011.9 |
| 20260503231217 | 0 | 0.0 | 0.0 | 0.00 | 0.00 | 0.00 | |||
| 20260503230957 | 73 | 294 | 4.3 | 6.1 | 0.00 | 0.00 | 0.00 | 45 | 1012.0 |
| 20260503230717 | 0 | 0.0 | 0.0 | 0.00 | 0.00 | 0.00 | |||
| 20260503230457 | 73 | 303 | 5.2 | 7.0 | 0.00 | 0.00 | 0.00 | 45 | 1012.0 |
| 20260503230217 | 0 | 0.0 | 0.0 | 0.00 | 0.00 | 0.00 | |||
| 20260503225958 | 72 | 305 | 5.2 | 7.8 | 0.00 | 0.00 | 0.00 | 47 | 1012.1 |
| 20260503225715 | 0 | 0.0 | 0.0 | 0.00 | 0.00 | 0.00 | |||
| 20260503225457 | 71 | 303 | 5.2 | 9.6 | 0.00 | 0.00 | 0.00 | 47 | 1012.1 |
| 20260503225214 | 0 | 0.0 | 0.0 | 0.00 | 0.00 | 0.00 | |||
| 20260503224957 | 71 | 312 | 5.2 | 8.7 | 0.00 | 0.00 | 0.00 | 50 | 1012.3 |
| 20260503224714 | 0 | 0.0 | 0.0 | 0.00 | 0.00 | 0.00 | |||
| 20260503224457 | 71 | 311 | 5.2 | 8.7 | 0.00 | 0.00 | 0.00 | 49 | 1012.3 |
| 20260503224215 | 0 | 0.0 | 0.0 | 0.00 | 0.00 | 0.00 | |||
| 20260503223958 | 71 | 324 | 3.5 | 7.0 | 0.00 | 0.00 | 0.00 | 49 | 1012.3 |
| 20260503223715 | 0 | 0.0 | 0.0 | 0.00 | 0.00 | 0.00 | |||
| 20260503223457 | 72 | 323 | 5.2 | 7.8 | 0.00 | 0.00 | 0.00 | 47 | 1012.4 |
| 20260503223215 | 0 | 0.0 | 0.0 | 0.00 | 0.00 | 0.00 | |||
| 20260503222957 | 71 | 298 | 5.2 | 7.8 | 0.00 | 0.00 | 0.00 | 47 | 1012.4 |
| 20260503222715 | 0 | 0.0 | 0.0 | 0.00 | 0.00 | 0.00 | |||
| 20260503222457 | 71 | 298 | 5.2 | 7.0 | 0.00 | 0.00 | 0.00 | 48 | 1012.4 |
| 20260503222215 | 0 | 0.0 | 0.0 | 0.00 | 0.00 | 0.00 | |||
| 20260503221957 | 71 | 317 | 7.0 | 7.8 | 0.00 | 0.00 | 0.00 | 50 | 1012.6 |
| 20260503221457 | 71 | 303 | 5.2 | 7.8 | 0.00 | 0.00 | 0.00 | 50 | 1012.5 |
| 20260503221220 | 0 | 0.0 | 0.0 | 0.00 | 0.00 | 0.00 | |||
| 20260503220957 | 71 | 312 | 6.1 | 9.6 | 0.00 | 0.00 | 0.00 | 50 | 1012.7 |
| 20260503220715 | 0 | 0.0 | 0.0 | 0.00 | 0.00 | 0.00 | |||
| 20260503220457 | 71 | 293 | 4.3 | 7.8 | 0.00 | 0.00 | 0.00 | 50 | 1012.8 |
| 20260503220215 | 0 | 0.0 | 0.0 | 0.00 | 0.00 | 0.00 | |||
| 20260503215957 | 71 | 309 | 5.2 | 7.8 | 0.00 | 0.00 | 0.00 | 49 | 1012.8 |
| 20260503215457 | 70 | 305 | 6.1 | 10.4 | 0.00 | 0.00 | 0.00 | 48 | 1012.8 |
| 20260503215216 | 0 | 0.0 | 0.0 | 0.00 | 0.00 | 0.00 |